Temperature
22 22 22 21 20 20 23 24 24 24 24 24 24 23 22 21 21 20 20 20 20 20 20 20 20 20 20 20 20 20 20 20 20 20 20 20 20 20 20 20 20 20 19 19 19 19 19 19 19
23 22 22 22 20 21 23 23 24 24 24 24 24 23 22 21 20 19 20 20 20 21 20 20 20 20 20 20 20 20 20 20 20 20 20 20 20 20 20 20 20 20 19 19 19 19 19 19 19
23 23 22 20 21 22 23 23 24 25 25 24 23 23 22 21 20 20 20 20 20 21 20 20 20 20 20 20 20 20 20 20 20 20 20 20 20 20 20 20 20 20 20 19 19 19 19 19 19
23 23 22 21 22 23 22 23 24 24 24 23 23 22 21 21 21 21 20 21 21 21 21 21 21 21 20 20 20 20 20 20 20 20 20 20 20 20 20 20 20 20 19 19 19 19 19 19 19
24 23 21 21 22 22 22 23 24 23 23 22 22 21 21 21 21 21 21 21 21 21 21 21 21 21 21 20 20 20 20 20 20 20 20 20 20 20 20 19 19 19 19 19 19 19 19 19 19
24 21 20 21 21 22 21 22 22 22 21 21 21 21 20 20 20 20 20 21 21 21 21 20 20 20 20 20 20 20 20 20 20 20 20 19 19 19 19 19 19 19 19 19 19 19 19 19 19
24 20 21 21 21 21 22 22 21 20 20 20 20 20 20 19 20 20 20 20 20 20 20 20 20 20 20 20 20 20 20 20 20 20 19 19 19 19 19 19 19 19 19 19 19 19 19 19 19
25 20 21 20 20 20 21 21 20 20 19 19 19 19 18 19 19 19 19 19 19 19 19 19 19 19 19 19 19 19 19 19 19 19 19 19 19 19 19 19 19 19 19 19 19 19 19 19 19
25 19 20 20 20 20 20 21 20 19 18 18 18 18 18 18 19 19 19 19 19 19 19 19 19 19 19 19 19 19 19 19 19 19 19 19 19 19 19 19 19 19 19 19 19 19 19 19 19
24 20 20 21 20 19 19 19 19 18 18 18 18 18 18 19 19 19 19 18 18 18 18 18 19 19 18 18 19 18 18 18 19 19 19 19 19 19 19 18 18 18 18 18 19 19 19 19 19
23 21 21 21 21 20 19 18 18 18 17 17 18 18 18 19 18 18 18 18 18 18 17 18 18 18 18 18 18 18 18 18 18 18 18 18 18 18 18 18 18 18 18 18 19 19 19 19 19
22 21 21 21 21 20 19 18 18 17 18 18 18 18 18 18 18 18 18 17 17 17 17 17 17 17 18 18 18 18 18 18 18 18 18 18 18 18 18 18 18 18 18 18 18 19 19 19 19
22 21 20 20 20 19 19 18 18 18 18 18 18 18 18 18 18 17 17 17 17 17 17 17 17 17 17 17 17 17 18 18 18 18 18 18 18 18 18 18 18 18 18 18 18 18 18 18 18
22 21 21 20 20 19 18 18 18 18 19 18 18 18 18 17 17 17 17 17 17 16 16 16 17 17 17 17 17 17 17 17 18 18 18 18 18 18 18 18 18 18 18 18 18 18 18 18 18
23 21 20 20 20 19 19 17 18 18 19 18 18 18 17 17 17 17 16 16 16 16 16 16 16 16 16 16 16 17 17 17 17 17 18 18 18 18 18 18 18 18 18 18 18 18 18 18 18
22 20 20 20 20 19 19 17 18 18 18 18 18 17 17 17 16 16 16 16 16 15 15 15 15 15 15 15 16 16 16 16 16 17 17 17 17 18 18 18 18 18 18 18 18 18 18 18 18
21 20 20 20 20 20 18 17 18 18 18 17 17 17 17 16 16 16 15 15 15 15 15 15 15 15 15 15 15 15 16 16 16 16 16 17 17 17 17 18 18 18 18 18 18 18 18 18 18
22 21 20 20 20 19 17 16 17 18 18 17 17 16 16 16 15 15 15 14 14 14 14 14 14 14 14 14 14 15 15 15 16 16 16 16 16 17 17 17 17 17 18 18 17 18 18 18 18
22 21 20 20 21 19 17 16 16 17 17 16 16 16 16 15 15 14 14 14 14 14 14 14 14 14 14 14 14 14 15 15 15 15 15 16 16 16 16 17 17 17 17 17 17 17 18 18 18
21 20 20 20 21 18 16 16 16 17 16 16 16 15 15 15 14 14 14 13 13 13 13 13 13 13 13 13 13 14 14 14 15 15 15 15 16 16 16 16 17 17 17 17 17 17 17 17 18
20 20 20 20 20 18 16 16 16 16 16 16 15 15 15 14 14 14 13 13 13 13 13 13 13 13 13 13 13 13 14 14 14 14 15 15 15 15 16 16 16 16 16 17 17 17 17 17 17
20 21 21 21 18 17 17 14 15 15 15 15 15 15 14 14 14 13 13 13 13 12 12 12 13 13 13 13 13 13 13 13 14 14 14 14 15 15 15 15 16 16 16 16 16 17 17 17 17
21 21 21 20 19 17 16 14 14 15 14 14 14 14 14 14 14 13 13 13 12 12 12 12 12 12 12 13 13 13 13 13 13 14 14 14 15 15 15 15 15 15 16 16 16 16 16 16 17
21 19 18 16 15 16 17 15 14 13 14 14 14 14 14 14 14 13 13 13 13 12 12 12 12 12 12 12 12 12 13 13 13 13 14 14 14 15 15 15 15 15 15 16 16 16 16 16 16
18 16 15 16 15 16 16 15 14 14 15 15 14 14 14 14 14 13 13 13 13 12 12 12 12 12 12 12 12 12 12 12 13 13 13 13 14 14 14 15 15 15 15 15 15 15 16 16 16
19 16 16 16 16 15 16 15 14 15 16 15 15 15 14 14 14 13 13 13 13 12 12 12 12 12 12 12 12 12 12 12 12 12 13 13 13 13 14 14 14 15 15 15 15 15 15 15 15
19 17 16 15 16 15 15 15 15 15 15 15 15 15 14 14 14 14 13 13 13 12 12 12 12 12 12 12 12 12 12 12 12 12 12 13 13 13 13 14 14 14 14 14 14 15 15 15 15
19 18 14 15 16 15 16 15 13 14 14 14 14 15 15 14 14 14 14 13 13 13 12 12 12 12 12 12 12 11 11 12 12 12 12 12 13 13 13 13 14 14 14 14 14 14 14 15 15
19 18 15 13 14 15 15 14 15 14 14 14 15 15 15 15 14 14 14 13 13 13 12 12 12 12 12 12 11 11 11 11 12 12 12 12 12 13 13 13 13 13 14 14 14 14 14 14 14
19 18 15 15 15 14 13 13 16 15 15 15 15 15 15 15 15 14 14 14 13 13 12 12 12 12 11 11 11 11 11 11 11 11 12 12 12 12 12 13 13 13 13 13 13 14 14 14 14
Wind_Speed
8 5 2 1 3 5 4 4 4 8 6 8 12 11 9 6 5 6 3 12 14 11 13 13 13 14 13 13 12 12 11 10 9 9 8 8 8 8 8 8 8 7 7 7 7 7 7 6 5
5 4 1 2 5 5 4 4 8 7 7 9 11 11 9 7 7 7 6 11 14 14 13 13 14 13 13 12 12 11 10 10 9 8 8 8 8 8 8 8 7 7 7 7 7 6 6 5 4
4 3 1 3 4 4 3 4 9 9 9 7 6 7 6 5 5 4 9 14 13 13 13 13 14 13 13 12 11 11 10 9 9 8 8 8 8 8 7 7 7 7 7 7 6 6 6 5 4
3 2 4 5 6 3 3 4 8 8 9 9 7 6 5 4 3 9 15 15 14 12 14 15 15 14 13 12 11 10 10 9 9 8 8 8 8 7 7 7 7 7 7 6 6 5 5 4 3
3 4 6 5 5 5 6 7 11 12 7 10 11 7 5 6 8 12 14 14 14 12 14 15 16 15 13 12 11 11 10 9 9 8 8 8 8 8 7 7 7 7 6 6 6 5 5 4 3
4 5 5 4 5 5 6 7 11 12 10 9 8 6 4 6 8 7 8 8 9 10 11 13 16 15 14 13 12 11 11 10 9 9 9 8 8 8 8 8 8 8 7 7 6 6 5 5 4
5 5 3 3 3 4 3 5 8 8 9 8 6 4 4 9 7 6 8 8 7 7 5 5 9 12 14 14 13 12 12 11 11 10 10 9 9 9 9 9 9 9 8 8 7 7 6 6 5
5 5 4 2 3 2 5 5 7 9 7 6 7 6 4 5 6 8 10 9 8 6 4 2 1 3 7 11 13 13 13 13 13 13 12 12 11 10 10 10 10 10 10 9 9 8 8 7 7
5 5 3 4 4 2 3 4 6 7 9 8 7 6 3 3 5 9 10 9 7 7 5 4 3 2 3 7 11 14 14 14 14 14 14 14 12 11 11 12 12 12 12 11 11 10 9 9 8
5 4 5 4 4 5 5 6 5 6 9 8 7 7 6 7 9 11 10 9 7 6 5 4 3 3 3 4 6 10 11 12 13 13 13 13 13 13 12 13 15 15 15 13 13 12 11 10 8
5 5 4 3 6 6 6 7 6 5 7 5 4 5 7 9 10 10 8 6 4 4 5 4 3 3 2 2 3 4 6 8 10 12 13 12 12 11 12 11 13 15 15 13 12 12 10 9 8
7 5 5 5 6 5 6 5 7 7 3 1 2 3 6 8 7 7 6 6 5 5 5 4 3 3 4 3 3 2 2 3 5 9 11 10 7 7 8 8 10 11 11 10 10 8 10 10 11
7 7 9 13 16 13 13 9 7 4 1 2 4 6 7 7 6 5 5 5 6 6 6 5 4 3 3 3 3 2 3 4 6 8 9 9 6 6 6 6 8 10 11 10 8 8 7 7 9
10 12 11 11 12 8 12 7 5 1 1 3 5 5 6 6 6 7 7 7 7 7 7 6 5 3 3 2 3 3 4 5 7 7 8 9 8 6 5 6 6 7 10 11 9 8 7 6 6
12 10 7 4 7 6 9 8 3 0 4 5 4 5 6 7 7 7 6 6 7 7 8 7 6 4 4 4 4 4 5 6 5 7 9 9 10 9 6 6 6 7 11 11 8 8 7 6 6
5 5 3 2 5 6 7 4 1 1 5 5 5 5 6 7 6 6 7 7 7 7 8 8 8 7 6 5 5 4 5 5 5 6 8 9 9 9 6 5 5 6 8 6 6 6 6 6 5
3 1 3 2 3 4 6 5 2 3 7 6 6 6 6 6 7 7 7 8 8 8 8 9 8 7 6 6 5 5 5 4 5 6 6 7 7 7 5 4 5 6 4 5 6 5 4 5 5
2 2 2 3 3 6 7 6 3 3 7 6 6 6 6 7 6 7 8 8 9 8 9 9 9 8 7 5 4 4 4 4 4 4 5 7 6 6 5 4 5 5 5 5 4 4 4 3 4
3 4 4 3 5 6 8 7 4 3 6 6 6 6 6 6 6 7 8 8 9 9 9 9 9 8 6 4 4 4 4 4 4 4 5 6 6 6 4 5 5 5 5 6 6 4 4 3 3
8 8 4 2 3 5 7 5 2 3 4 5 5 5 5 6 8 8 8 8 8 9 9 9 9 9 8 5 4 4 4 4 4 4 4 5 5 6 5 5 5 6 5 6 7 5 4 3 3
6 5 4 3 2 6 8 3 1 2 4 5 4 3 4 5 6 7 8 8 8 9 9 9 9 9 8 8 5 5 3 3 3 4 4 4 5 6 5 5 5 6 6 7 8 7 7 5 3
1 2 2 3 4 3 6 4 4 2 2 3 2 3 4 4 5 6 7 9 8 8 9 9 8 9 9 8 6 5 4 3 4 4 4 5 5 5 5 5 5 6 6 7 7 8 6 6 5
3 2 1 0 2 1 1 5 4 2 0 1 1 2 3 4 5 6 7 8 8 8 8 8 9 8 8 8 7 5 4 4 4 4 5 5 5 5 5 4 5 5 5 7 7 6 7 6 6
2 6 7 6 5 1 3 5 4 3 3 2 1 2 3 4 5 6 7 7 7 7 8 8 9 9 9 8 7 6 6 6 6 6 5 5 4 4 5 4 4 5 5 6 7 7 7 7 6
7 6 5 6 4 4 1 4 4 4 4 4 2 1 2 4 5 6 7 8 8 9 9 8 9 9 9 9 8 7 7 6 5 5 5 5 4 4 5 4 3 4 4 5 5 6 7 7 7
1 7 6 2 3 4 3 1 4 4 3 3 3 2 2 3 4 5 6 6 6 8 8 8 8 8 9 8 8 8 7 5 4 5 5 5 4 4 5 5 3 2 2 3 4 5 6 6 7
2 2 6 6 0 1 1 1 3 2 2 2 2 1 2 3 4 5 5 5 6 6 7 7 7 7 8 8 8 8 8 7 7 7 6 5 5 5 6 5 4 3 2 1 2 3 4 5 6
1 3 6 3 1 2 3 4 5 6 5 4 3 2 3 4 4 5 5 4 5 5 5 6 5 6 6 8 7 7 8 8 7 7 8 9 8 8 8 8 7 6 5 3 1 1 2 3 4
4 4 5 4 4 4 3 6 5 8 7 6 5 5 5 4 4 4 4 4 4 4 4 5 6 6 7 7 7 8 8 8 8 8 8 8 8 9 9 8 8 8 8 6 4 2 2 2 2
3 4 5 3 1 2 3 6 3 8 8 7 6 5 5 4 4 4 4 3 4 4 4 5 5 5 6 6 7 8 8 8 9 9 9 8 9 9 9 9 9 8 8 7 6 5 4 3 2
Wind_Direction
180 163 134 124 56 51 53 8 47 57 58 64 72 78 80 54 81 129 140 145 138 146 151 149 147 144 144 145 146 147 147 145 143 141 139 136 131 128 125 122 119 116 113 111 109 109 105 97 84
146 143 169 62 79 70 30 23 54 73 123 105 77 77 74 66 74 97 114 140 141 145 150 151 150 147 146 147 147 148 149 149 148 147 146 144 140 137 135 132 129 127 123 120 116 115 114 107 94
139 178 120 64 81 110 85 50 76 70 66 72 74 54 64 77 83 109 148 146 144 147 151 153 153 151 150 150 150 151 152 152 153 154 152 150 148 147 145 141 139 137 134 131 127 123 122 119 108
115 55 36 63 68 48 88 88 85 72 50 46 83 59 51 52 70 137 149 153 149 151 154 158 159 159 158 157 157 157 159 160 162 163 164 162 160 160 158 156 153 148 144 144 142 139 137 136 133
93 77 50 51 47 34 43 58 74 75 66 64 79 87 55 22 90 135 151 155 152 155 161 166 166 166 167 167 168 169 170 172 174 176 176 174 174 174 173 172 168 164 160 156 156 158 157 161 170
67 65 68 64 39 37 30 40 75 79 78 61 63 85 68 38 75 108 130 139 148 154 161 171 173 173 176 177 179 181 183 185 188 190 189 187 188 186 184 183 180 178 174 173 174 176 180 186 198
108 97 100 103 55 26 25 35 46 63 55 24 11 69 50 23 38 77 89 93 98 111 127 164 185 186 186 186 188 191 194 196 199 199 199 199 200 200 197 194 191 188 186 186 189 192 197 203 216
116 101 87 77 86 24 360 41 51 44 54 32 30 57 29 353 20 64 68 65 68 67 64 64 163 202 210 205 201 201 202 205 207 207 206 207 208 208 208 205 201 200 198 199 201 204 208 216 227
89 81 127 188 168 157 359 60 66 53 65 58 54 63 50 6 45 60 57 50 48 48 40 31 20 1 264 238 225 216 213 214 214 215 214 211 211 214 216 214 210 210 208 208 209 212 218 224 235
81 113 187 187 150 126 64 54 73 64 50 44 41 39 40 40 47 54 52 45 36 29 21 24 19 352 305 257 246 230 224 225 222 220 219 215 212 216 221 223 221 217 215 214 216 219 224 231 240
87 133 149 118 126 120 91 58 40 89 51 32 34 21 26 42 47 50 46 42 36 27 20 9 351 340 327 307 286 245 232 232 233 228 225 223 220 222 227 226 228 225 220 217 220 223 226 230 236
92 77 109 107 109 86 84 95 68 61 98 96 69 42 40 43 45 45 41 30 15 16 9 356 345 342 336 339 323 282 244 240 242 242 235 227 222 224 224 221 219 215 212 209 214 217 225 233 239
109 111 91 94 89 91 92 90 96 71 91 84 63 49 44 48 43 38 36 29 18 9 356 343 338 344 334 330 313 296 262 254 255 254 242 226 221 225 221 219 216 210 208 208 211 216 223 230 239
120 115 116 115 110 99 96 83 81 66 95 84 70 55 48 48 43 35 23 16 6 356 347 339 332 322 319 307 289 278 272 269 261 255 243 229 226 227 216 213 213 212 210 212 212 213 219 226 227
112 108 101 112 115 129 103 61 52 147 94 75 63 51 44 39 42 35 22 15 2 352 346 341 334 339 322 309 293 291 278 269 262 259 250 236 227 222 214 210 209 212 211 210 213 219 221 227 226
87 97 127 181 147 150 102 107 271 112 93 67 54 48 46 37 38 28 22 14 4 358 349 339 343 338 325 315 302 298 292 284 270 268 257 246 239 229 219 214 212 208 203 202 206 209 208 223 222
57 151 193 176 167 128 110 144 196 107 100 80 64 56 50 35 24 19 15 9 2 358 347 340 336 329 319 313 306 301 297 291 282 277 269 260 251 239 224 219 215 202 191 196 209 204 198 209 213
268 246 175 165 136 113 115 139 161 118 99 87 68 54 42 32 11 4 7 4 358 352 347 343 337 333 323 314 312 309 303 294 288 278 271 269 261 253 236 227 221 205 195 195 201 200 199 197 194
107 100 112 122 134 111 128 140 161 113 90 79 61 46 31 16 356 1 0 357 354 349 345 341 340 335 332 323 314 306 300 295 293 285 277 274 264 257 242 239 226 213 205 203 197 193 198 198 169
82 87 86 67 128 111 125 128 143 109 103 101 84 54 27 8 357 351 351 350 348 342 340 342 341 334 332 321 300 273 271 272 273 284 293 284 275 266 253 237 226 214 210 207 200 189 185 195 170
72 112 153 189 79 95 112 86 119 74 78 75 69 56 26 17 355 343 343 340 341 342 340 340 332 332 330 330 323 317 309 305 311 310 304 294 288 273 259 245 232 219 208 210 205 196 185 191 196
116 181 164 146 119 198 156 172 218 171 68 46 36 28 10 357 346 340 340 338 337 334 336 335 333 333 332 336 339 335 325 310 293 294 292 296 294 281 263 250 236 227 216 213 212 203 193 181 193
228 264 284 176 142 27 99 136 245 178 178 290 316 5 357 348 341 338 337 332 331 334 338 339 340 338 337 340 341 336 330 312 309 315 317 313 303 288 276 257 241 233 224 215 209 200 193 190 192
15 23 28 49 71 341 254 151 237 234 214 226 273 335 338 333 335 336 337 339 336 338 340 343 345 344 346 349 349 349 345 338 341 339 333 325 314 304 294 274 251 238 229 222 213 204 199 200 197
54 62 30 12 11 268 45 112 233 222 194 177 189 262 300 320 331 335 339 343 339 340 343 344 348 348 348 351 352 350 348 345 345 336 328 330 329 319 315 306 270 248 235 224 211 202 205 200 196
37 125 137 185 242 287 14 146 249 217 176 161 176 201 303 325 325 327 326 329 330 333 338 343 349 350 350 353 352 354 354 354 351 342 339 338 332 321 324 326 311 288 256 229 203 197 205 197 200
49 92 167 145 184 3 312 288 293 204 193 203 204 195 296 308 321 323 325 329 327 331 336 338 346 352 352 353 354 358 0 3 3 3 3 0 359 2 4 5 10 358 350 290 196 196 200 192 199
98 125 71 82 72 324 293 242 231 217 220 222 224 235 263 291 308 316 322 321 321 325 333 342 349 352 352 359 4 11 4 7 9 15 18 16 14 17 19 20 24 26 22 24 43 155 181 179 186
29 51 80 108 144 154 277 272 221 197 197 197 214 222 238 262 281 290 299 304 312 330 342 349 353 357 0 4 10 13 11 11 18 23 20 19 21 22 23 21 25 28 27 28 37 50 91 126 148
135 137 129 128 284 160 200 268 245 182 187 190 208 221 236 255 258 272 285 304 319 328 338 350 356 2 2 8 16 16 15 18 22 21 20 22 25 24 24 23 26 28 29 27 32 39 56 88 115
Height
1537 1536 1536 1538 1540 1546 1546 1539 1532 1530 1531 1531 1529 1530 1534 1539 1542 1550 1547 1547 1549 1551 1552 1553 1555 1556 1556 1557 1558 1558 1559 1559 1560 1560 1561 1561 1561 1561 1562 1562 1562 1562 1562 1563 1563 1563 1563 1563 1564
1537 1536 1538 1538 1545 1557 1551 1538 1535 1532 1532 1531 1532 1534 1536 1541 1543 1545 1546 1549 1551 1552 1553 1554 1555 1556 1556 1557 1558 1558 1559 1559 1560 1560 1560 1561 1561 1561 1561 1561 1562 1562 1562 1562 1563 1563 1563 1563 1564
1538 1538 1539 1540 1547 1554 1550 1539 1535 1534 1534 1532 1535 1537 1540 1544 1546 1546 1548 1550 1551 1553 1553 1554 1555 1556 1557 1557 1558 1558 1559 1559 1559 1560 1560 1560 1560 1560 1561 1561 1561 1561 1562 1562 1562 1562 1563 1563 1564
1538 1538 1540 1545 1549 1545 1543 1539 1535 1535 1536 1536 1537 1541 1544 1547 1547 1548 1549 1551 1552 1553 1554 1555 1555 1556 1556 1557 1557 1558 1558 1559 1559 1559 1559 1560 1560 1560 1560 1560 1561 1561 1561 1561 1562 1562 1562 1563 1563
1538 1539 1546 1552 1550 1545 1542 1540 1537 1538 1540 1542 1540 1545 1548 1549 1549 1549 1550 1552 1552 1553 1554 1555 1555 1556 1556 1557 1557 1557 1558 1558 1558 1559 1559 1559 1559 1559 1559 1560 1560 1560 1560 1561 1561 1561 1562 1562 1562
1539 1542 1555 1561 1554 1548 1546 1544 1542 1543 1545 1546 1546 1548 1552 1552 1551 1551 1552 1553 1553 1554 1554 1555 1556 1556 1556 1556 1557 1557 1557 1557 1558 1558 1558 1558 1558 1559 1559 1559 1559 1559 1560 1560 1560 1560 1561 1561 1562
1540 1546 1556 1559 1557 1553 1549 1547 1547 1548 1548 1549 1549 1550 1554 1554 1553 1553 1552 1552 1553 1553 1554 1554 1555 1556 1556 1556 1556 1556 1556 1556 1557 1557 1557 1557 1557 1558 1558 1558 1558 1559 1559 1559 1559 1559 1560 1560 1561
1538 1546 1556 1559 1558 1557 1551 1549 1551 1551 1552 1553 1552 1553 1556 1557 1555 1554 1553 1553 1553 1554 1553 1554 1554 1554 1554 1555 1555 1554 1555 1555 1555 1555 1556 1556 1556 1556 1557 1557 1557 1557 1558 1558 1558 1558 1559 1559 1560
1539 1550 1560 1558 1556 1555 1552 1552 1554 1557 1555 1556 1556 1557 1559 1558 1556 1554 1554 1554 1553 1553 1553 1552 1553 1552 1553 1553 1553 1553 1553 1553 1553 1554 1554 1554 1554 1555 1555 1555 1555 1556 1556 1556 1557 1557 1557 1558 1558
1538 1553 1553 1550 1550 1553 1554 1554 1556 1559 1558 1559 1560 1560 1559 1558 1556 1555 1554 1554 1554 1553 1552 1552 1551 1551 1551 1550 1550 1551 1550 1551 1551 1551 1551 1552 1552 1552 1553 1553 1554 1554 1554 1554 1555 1555 1556 1556 1557
1539 1548 1548 1549 1550 1553 1555 1557 1559 1560 1562 1563 1562 1562 1560 1559 1557 1556 1556 1555 1555 1554 1552 1551 1550 1549 1548 1548 1547 1547 1547 1547 1548 1548 1549 1549 1549 1549 1550 1551 1551 1552 1552 1552 1553 1553 1554 1555 1556
1542 1546 1548 1551 1552 1554 1556 1559 1562 1562 1565 1565 1564 1563 1562 1560 1559 1558 1557 1556 1555 1553 1552 1550 1549 1547 1546 1545 1544 1544 1544 1543 1544 1544 1545 1545 1546 1546 1547 1547 1548 1549 1549 1550 1551 1551 1552 1553 1555
1543 1549 1551 1553 1554 1556 1558 1561 1563 1565 1565 1565 1565 1564 1562 1561 1560 1559 1558 1556 1555 1553 1551 1549 1547 1545 1544 1543 1542 1541 1540 1540 1540 1540 1541 1541 1542 1542 1543 1544 1545 1546 1546 1548 1549 1549 1550 1552 1553
1543 1548 1552 1554 1555 1558 1559 1563 1564 1567 1566 1566 1565 1564 1563 1562 1561 1559 1557 1555 1553 1551 1549 1547 1545 1543 1541 1540 1539 1537 1537 1536 1536 1536 1537 1537 1538 1538 1539 1539 1541 1542 1543 1545 1546 1548 1549 1550 1551
1543 1549 1554 1555 1556 1559 1559 1566 1567 1567 1566 1566 1566 1565 1564 1563 1561 1559 1557 1555 1552 1549 1547 1545 1543 1541 1539 1537 1535 1534 1533 1532 1532 1532 1532 1533 1533 1534 1535 1535 1536 1538 1539 1541 1543 1544 1546 1547 1548
1545 1552 1559 1556 1555 1558 1562 1573 1568 1567 1566 1566 1566 1565 1564 1562 1561 1558 1556 1553 1550 1547 1545 1542 1540 1537 1535 1533 1531 1530 1528 1527 1527 1527 1527 1528 1528 1529 1530 1531 1532 1533 1535 1537 1538 1540 1542 1543 1545
1551 1558 1559 1557 1554 1557 1562 1571 1568 1567 1566 1566 1566 1565 1563 1562 1560 1557 1554 1551 1548 1545 1541 1539 1536 1533 1531 1529 1527 1525 1524 1523 1522 1522 1522 1522 1523 1524 1525 1526 1527 1529 1530 1532 1534 1536 1538 1539 1542
1556 1556 1557 1558 1555 1557 1564 1569 1567 1567 1566 1566 1566 1565 1563 1561 1559 1556 1553 1550 1546 1542 1539 1536 1533 1530 1527 1525 1523 1521 1520 1519 1518 1517 1517 1517 1518 1519 1520 1521 1522 1524 1525 1527 1529 1531 1534 1536 1538
1547 1552 1557 1556 1553 1559 1566 1569 1568 1568 1567 1567 1566 1565 1563 1561 1559 1556 1552 1548 1544 1540 1536 1533 1530 1527 1524 1521 1519 1517 1516 1515 1514 1513 1513 1513 1513 1513 1514 1516 1517 1519 1520 1522 1525 1526 1529 1531 1534
1548 1556 1559 1556 1553 1560 1569 1571 1570 1569 1568 1568 1567 1565 1563 1561 1558 1554 1551 1547 1542 1538 1534 1531 1528 1524 1521 1518 1516 1514 1512 1511 1510 1509 1509 1508 1508 1509 1509 1510 1512 1513 1515 1517 1519 1522 1524 1526 1529
1553 1557 1558 1558 1557 1561 1570 1577 1573 1571 1569 1568 1567 1565 1563 1561 1557 1554 1550 1546 1542 1538 1533 1530 1526 1523 1519 1516 1513 1511 1508 1507 1506 1505 1505 1504 1504 1504 1505 1505 1506 1508 1510 1511 1513 1516 1519 1521 1524
1556 1550 1551 1554 1563 1571 1569 1586 1577 1572 1571 1569 1567 1565 1563 1560 1557 1554 1550 1545 1541 1537 1533 1529 1525 1521 1518 1514 1511 1508 1506 1504 1503 1502 1501 1501 1500 1500 1500 1501 1501 1503 1504 1506 1508 1510 1513 1516 1519
1551 1547 1550 1553 1560 1568 1569 1582 1580 1573 1573 1570 1567 1565 1563 1560 1557 1553 1550 1546 1542 1538 1533 1529 1525 1521 1517 1513 1510 1507 1504 1502 1501 1500 1498 1497 1497 1496 1496 1497 1497 1498 1499 1501 1503 1505 1507 1510 1513
1547 1551 1555 1562 1569 1578 1569 1578 1581 1576 1571 1568 1566 1564 1562 1560 1557 1553 1550 1546 1542 1538 1533 1529 1525 1521 1517 1513 1509 1506 1503 1501 1499 1498 1496 1495 1494 1493 1493 1493 1493 1494 1495 1496 1498 1500 1503 1505 1508
1553 1567 1581 1582 1588 1583 1569 1575 1578 1569 1566 1566 1565 1564 1562 1559 1556 1553 1549 1546 1542 1538 1534 1529 1525 1521 1517 1513 1510 1506 1503 1501 1498 1497 1495 1493 1492 1491 1490 1490 1489 1490 1490 1492 1493 1495 1498 1500 1502
1556 1565 1583 1590 1590 1584 1574 1577 1575 1566 1565 1564 1564 1563 1561 1559 1556 1553 1550 1546 1543 1539 1535 1531 1526 1522 1518 1514 1511 1507 1504 1501 1499 1497 1495 1493 1491 1490 1488 1487 1487 1487 1487 1488 1489 1491 1493 1495 1498
1557 1563 1565 1578 1578 1584 1580 1576 1571 1566 1565 1564 1563 1562 1560 1558 1556 1553 1550 1547 1543 1540 1536 1532 1528 1524 1520 1516 1512 1508 1505 1502 1499 1497 1495 1493 1491 1489 1488 1486 1485 1485 1484 1485 1486 1487 1489 1492 1494
1554 1558 1570 1576 1584 1590 1581 1578 1578 1568 1565 1564 1562 1561 1559 1558 1555 1553 1550 1547 1544 1541 1537 1533 1530 1526 1522 1518 1514 1510 1507 1504 1501 1499 1496 1494 1492 1490 1488 1486 1485 1484 1483 1483 1484 1485 1487 1489 1490
1558 1561 1569 1579 1582 1589 1591 1583 1563 1562 1561 1561 1561 1559 1558 1557 1555 1552 1550 1547 1545 1541 1538 1535 1531 1527 1524 1520 1516 1512 1509 1506 1503 1500 1498 1495 1493 1491 1489 1487 1486 1484 1483 1483 1484 1484 1485 1486 1488
1555 1559 1568 1579 1580 1583 1589 1582 1557 1557 1558 1559 1559 1558 1557 1556 1554 1552 1550 1547 1545 1542 1539 1536 1532 1529 1526 1522 1518 1515 1512 1508 1505 1502 1500 1497 1495 1493 1491 1489 1487 1486 1484 1484 1483 1483 1484 1485 1487